Location: Gradaro
(45.0833°N, 10.8833°E)
Time: 09:19:50
(UTC+00:00)

NOSS 3-2 (C) - Pass Details

Date: 29 November 2020
Orbit: 789 x 1424 km, 63.4° (Epoch: 09 January)

Event Time Altitude Azimuth Distance (km) Brightness Sun altitude
Exits shadow 04:00:11 50° 265° (W) 1,606 4.1 -26.3°
Maximum altitude 04:01:11 53° 241° (WSW) 1,576 4.2 -26.1°
Drops below altitude 10° 04:09:26 10° 168° (SSE) 3,476 6.6 -24.7°
Sets 04:12:31 0° 164° (SSE) 4,476 7.2 -24.1°
